Regional Weather Roundup
Issued by NWS

Home | Current Version | Previous Version | Text Only | Print | Product List | Glossary Off
Versions: 1 2 3 4 5 6 7 8 9 10 11 12 13 14 15 16 17 18 19 20 21 22 23 24 25 26 27 28 29 30 31 32 33 34 35 36 37 38 39 40 41 42 43 44 45 46 47 48 49 50

000
ASUS43 KOAX 022002
RWRNE

WEATHER ROUNDUP FOR NEBRASKA
NATIONAL WEATHER SERVICE OMAHA NE
200 PM CST FRI DEC 02 2016

NOTES: SATELLITE DATA IS BEING USED TO AUGMENT CLOUD COVER ABOVE
       12000 FEET.
       "FAIR" INDICATES FEW OR NO CLOUDS BELOW 12,000 FEET WITH NO
       SIGNIFICANT WEATHER AND/OR OBSTRUCTIONS TO VISIBILITY.

  * THESE STATIONS DO NOT REPORT WEATHER SUCH AS RAIN...SNOW OR FOG.

NEZ001>004-019>022-054>056-022100-
NEBRASKA PANHANDLE

CITY           SKY/WX    TMP DP  RH WIND       PRES   REMARKS
SCOTTSBLUFF    SUNNY     40  23  50 W6        30.20F
ALLIANCE       MOSUNNY   42  21  43 VRB6      30.18F
CHADRON        SUNNY     43  20  39 W8        30.19F
KIMBALL        CLOUDY    36  25  64 CALM      30.18F
SIDNEY         CLOUDY    38  23  55 N3        30.19F
$$

NEZ057>060-069>072-079>082-022100-
SOUTHWEST NEBRASKA

CITY           SKY/WX    TMP DP  RH WIND       PRES   REMARKS
NORTH PLATTE   SUNNY     42  22  44 CALM      30.23F
IMPERIAL       MOSUNNY   42  23  46 N3        30.22F
LEXINGTON      SUNNY     40  25  56 CALM      30.25F
MCCOOK         CLOUDY    41  23  48 CALM      30.24F
OGALLALA       SUNNY     43  26  51 SW3       30.21F
$$

NEZ005>010-023>029-035>040-094-022100-
NORTH CENTRAL NEBRASKA

CITY           SKY/WX    TMP DP  RH WIND       PRES   REMARKS
VALENTINE      SUNNY     42  25  50 W7        30.21F
AINSWORTH      SUNNY     40  26  56 W8        30.23S WCI  35
BROKEN BOW     SUNNY     42  23  46 SW5       30.23F
O`NEILL        PTSUNNY   37  28  67 CALM      30.26S
ORD            SUNNY     41  22  46 NW6       30.25F
THEDFORD       SUNNY     45  23  41 W5        30.21F
$$

NEZ041-046>049-061>064-073>077-083>087-022100-
SOUTH CENTRAL NEBRASKA

CITY           SKY/WX    TMP DP  RH WIND       PRES   REMARKS
GRAND ISLAND   SUNNY     40  25  55 NW5       30.27S
AURORA         SUNNY     40  25  54 CALM      30.27S
HASTINGS       SUNNY     41  26  55 N3        30.28R
HEBRON         SUNNY     42  27  54 CALM      30.27F
HOLDREGE       MOSUNNY   39  24  55 CALM      30.25F
KEARNEY *      SUNNY     37  25  60 CALM      30.26F
YORK           SUNNY     39  27  60 CALM      30.27S
$$

NEZ011>018-030>034-042>045-022100-
NORTHEAST NEBRASKA

CITY           SKY/WX    TMP DP  RH WIND       PRES   REMARKS
NORFOLK        CLOUDY    35  26  69 NW7       30.28S WCI  29
ALBION         MOSUNNY   38  27  63 NW6       30.26F WCI  33
BLAIR          CLOUDY    39  30  71 NW8       30.27F WCI  33
FREMONT        PTSUNNY   39  30  71 W6        30.29F WCI  35
TEKAMAH        CLOUDY    38  30  73 CALM      30.30S
WAYNE          CLOUDY    37  29  73 NW3       30.29R
$$

NEZ050>053-065>068-078-088>093-022100-
SOUTHEAST NEBRASKA

CITY           SKY/WX    TMP DP  RH WIND       PRES   REMARKS
LINCOLN        SUNNY     44  28  53 W6        30.29F
OMAHA EPPLEY   PTSUNNY   40  30  67 N7        30.29F
BEATRICE       SUNNY     44  28  52 W3        30.28S
FALLS CITY       N/A     44  30  57 MISG      30.28S
NEBRASKA CITY  SUNNY     42  27  54 NW6       30.28R
PLATTSMOUTH    SUNNY     42  26  53 NW6       30.28S
$$

NEZ044-045-051>053-067-022100-
OMAHA AREA

CITY           SKY/WX    TMP DP  RH WIND       PRES   REMARKS
OMAHA EPPLEY   PTSUNNY   40  30  67 N7        30.29F
BLAIR          CLOUDY    39  30  71 NW8       30.27F WCI  33
FREMONT        PTSUNNY   39  30  71 W6        30.29F WCI  35
MILLARD        MOSUNNY   42  29  59 NW8       30.29F
OFFUTT AFB     MOSUNNY   43  31  62 NW8       30.28F
PLATTSMOUTH    SUNNY     42  26  53 NW6       30.28S
WAHOO          FAIR      42  27  56 NW3       30.27F
$$



USA.gov is the U.S. government's official web portal to all federal, state and local government web resources and services.